吉林一号 宽幅 02A (JILIN-1 KUANFU 02A)

导读

JILIN-01 KUANFU 02A是中国于北京时间2023年8月25日08时发射的卫星,归属吉林一号卫星星座体系。作为宽幅光学遥感卫星,它凭借大幅宽成像能力,在国土测绘、农业估产、灾害监测、城市规划等领域提供高分辨率遥感数据支撑,助力我国遥感应用能力提升,服务国民经济各领域发展。

基本信息
目录编号:
57696
目录名称:
JILIN-01 KUANFU 02A
国际标识:
2023-127A
轨道中心:
EARTH
卫星名称:
宽幅 02A
卫星全名:
吉林一号 宽幅 02A (JILIN-1 KUANFU 02A)
卫星状态:
在轨 (已飞行1067 天)
发射日期:
2023-08-25 UTC
国别 :
中国 (CN)
星等 :
--
轨道信息
数据来源 国际轨道数据 AOE轨道数据
星历时间 2026-07-27T22:29:53+0800
7小时前
查看轨道信息
2026-07-26T01:00:00+0800
2天前
查看轨道信息
半长轴 6911.581km 6911.552km
偏心率 0.001129 0.0011383
轨道倾角 97.557° 97.557°
近地点辐角 191.780° 198.219°
升交点赤经 301.914° 300.041°
平近点角 168.316° 296.993°
近地点 525.64km 525.547km
远地点 541.248km 541.283km
周期 95.307分钟 95.307分钟
每日圈数 15.109033 15.109128
详细信息
卫星平台:
高分卫星平台
平衡模式:
三轴稳定
覆盖范围:
全球
运营商:
长光卫星技术股份有限公司
运营商所在国:
中国
制造商(研发单位):
长光卫星技术股份有限公司
制造商所在国:
中国
使用方式:
暂无
卫星简介
“吉林一号”卫星星座(JiLin-1)是长光卫星技术有限公司在建的核心工程,是我国目前最大的商业遥感卫星星座,具备了较强的服务能力。该卫星仍在工作。
2D轨道图
3D轨道图
轨道高度分析图
轨道倾角分析图
轨道综合分析图
查看轨道综合分析图